[[{"header":{"parameterUnit":"m.s-1","parameterCategory":2,"la1":30.2991,"la2":30.254,"lo1":-89.0895,"lo2":-89.0444,"dy":0.0017,"dx":0.0017,"nx":28,"ny":28,"refTime":"2025-03-31T09:00:00:Z","depth":"0","parameterNumber":2,"parameterNumberName":"U-component_of_CURRENTS"},"data":[0,0,0,0,0,0,0,0,0,0,0,0,0,0,0,0,0,0,0,0,0,0,0,0,0,0,0,0,0,0,0,0,0,0,0,0,0,0,0,0,0,0,0,0,0,0,0,0,0,0,0,0,0,0,0,0,0,0,0.1825,0.1826,0,0.1852,0.1852,0.1853,0.1853,0.1853,0.1853,0.1853,0.1857,0.1857,0.1857,0,0,0,0,0,0,0,0,0,0,0,0,0,0.1776,0.1777,0.1825,0.1826,0.1826,0.1852,0.1852,0.1853,0.1853,0.1853,0.1853,0.1853,0.1857,0.1857,0.1857,0,0,0,0,0,0,0,0,0,0,0,0,0,0.1798,0.1777,0.1825,0.1831,0.1832,0.1852,0.1852,0.1853,0.1853,0.1853,0.1853,0.1853,0.1856,0.1857,0.1857,0.1865,0,0,0.1858,0.1859,0,0,0,0,0,0,0,0,0.1797,0.18,0.183,0.1831,0.1832,0.1851,0.1837,0.1856,0.1853,0.1843,0.1853,0.1852,0.1854,0.1854,0.1858,0.1865,0.1865,0.1858,0.1859,0.1859,0.1859,0,0,0,0,0,0,0,0.1795,0.1799,0.1834,0.183,0.1832,0.1833,0.1836,0.184,0.1848,0.1844,0.1845,0.1851,0.1854,0.1858,0.1858,0.1865,0.1858,0.1859,0.1859,0.1859,0.1911,0.1912,0,0,0,0,0,0,0.1796,0.1797,0.1833,0.1835,0.1815,0.1834,0.1837,0.1843,0.1848,0.185,0.1851,0.1851,0.1857,0.1857,0.1858,0.1893,0.1859,0.1859,0.1859,0.191,0.1912,0.1913,0,0,0,0,0,0,0.1795,0.1799,0.1832,0.1818,0.1823,0.1836,0.1843,0.1844,0.185,0.1854,0.1854,0.1856,0.1857,0.1858,0.1871,0.1892,0.1859,0.186,0.1909,0.1911,0.1912,0.1947,0,0,0,0,0,0,0.1793,0.1798,0.1802,0.1818,0.1824,0.185,0.1843,0.1845,0.1855,0.1855,0.1859,0.1859,0.1857,0.187,0.1871,0.1892,0.186,0.1907,0.191,0.1912,0.1944,0.1949,0.1954,0,0,0,0,0,0.1791,0.1798,0.1802,0.1806,0.1828,0.1851,0.1854,0.1861,0.1856,0.1864,0.1867,0.1859,0.1885,0.1872,0.1872,0.1894,0.1906,0.1909,0.1911,0.1942,0.1948,0.1954,0,0,0,0,0,0,0.1774,0.18,0.1804,0.1816,0.1835,0.1852,0.186,0.1864,0.1873,0.1871,0.1869,0.187,0.1891,0.1888,0.1874,0.1917,0.1896,0.1899,0.1919,0.1925,0.193,0.1935,0.186,0,0,0,0,0,0.1774,0.1787,0.1811,0.1821,0.1831,0.1846,0.1855,0.1862,0.1873,0.1877,0.188,0.1887,0.1903,0.1909,0.1918,0.1938,0.1954,0.1955,0.196,0.1964,0.197,0.2014,0.2023,0.1921,0.1921,0.1921,0,0,0.1768,0.1786,0.1791,0.1819,0.1832,0.1853,0.185,0.1869,0.1887,0.1876,0.1896,0.1902,0.1912,0.1937,0.1947,0.1937,0.2004,0.1967,0.197,0.1974,0.2017,0.2027,0.2036,0.1923,0.1923,0.1922,0,0,0.177,0.1782,0.1796,0.1816,0.1845,0.1858,0.1865,0.1886,0.1897,0.1918,0.1921,0.1941,0.1954,0.1973,0.1983,0.2021,0.2027,0.2023,0.2053,0.2096,0.2104,0.2112,0.2155,0.2166,0.2027,0.2027,0.2027,0,0.176,0.1785,0.1803,0.1827,0.1845,0.1861,0.1883,0.1901,0.1923,0.1941,0.1928,0.1972,0.1975,0.2021,0.2034,0.2033,0.2056,0.2028,0.2102,0.211,0.2118,0.2159,0.2171,0.2029,0.2029,0.2029,0.2029,0,0.1777,0.1798,0.181,0.1846,0.1868,0.1889,0.192,0.1941,0.1952,0.1972,0.2014,0.2024,0.2053,0.206,0.2056,0.2116,0.2116,0.2102,0.2086,0.213,0.2171,0.2183,0.2032,0.2031,0.2031,0.203,0,0,0.1747,0.1809,0.1812,0.1833,0.188,0.1897,0.1938,0.1981,0.201,0.2034,0.2077,0.2106,0.2115,0.2128,0.2133,0.2167,0.2238,0.2158,0.2159,0.2198,0.234,0.2337,0.2349,0.2238,0.224,0.2241,0.235,0,0.1753,0.1797,0.183,0.1867,0.1891,0.1928,0.1966,0.2008,0.204,0.2085,0.2118,0.2155,0.2142,0.2158,0.2194,0.2228,0.227,0.2211,0.2293,0.2295,0.2286,0.2363,0.2341,0.2436,0.2362,0.2364,0.2365,0,0.1754,0.1787,0.1826,0.1885,0.1899,0.1924,0.1985,0.2021,0.2096,0.2127,0.2177,0.2201,0.2267,0.2238,0.2333,0.2297,0.2325,0.2345,0.2349,0.2342,0.2315,0.2379,0.246,0.2445,0.2383,0.2382,0.238,0,0.1719,0.178,0.1809,0.1829,0.1899,0.1924,0.1959,0.2029,0.2068,0.2153,0.2193,0.2268,0.231,0.2361,0.2407,0.2379,0.2506,0.2472,0.2498,0.2498,0.2494,0.249,0.2568,0.2542,0.2541,0.2541,0.2541,0,0.1711,0.173,0.1793,0.1808,0.1842,0.19,0.1942,0.1995,0.2078,0.213,0.2207,0.2265,0.2342,0.2417,0.2446,0.2523,0.2545,0.2528,0.2536,0.2505,0.2501,0.2496,0.2463,0.2545,0.2544,0.2543,0.2543,0,0.1665,0.171,0.1738,0.1807,0.1825,0.1843,0.1917,0.1954,0.2044,0.2117,0.2149,0.2283,0.2394,0.247,0.2567,0.2578,0.2593,0.2657,0.2618,0.2618,0.2611,0.2579,0.253,0.2437,0.2714,0.2715,0.2716,0,0.1646,0.1659,0.1713,0.1728,0.1756,0.1794,0.1826,0.1919,0.1965,0.212,0.2157,0.2302,0.2403,0.257,0.2635,0.2725,0.2627,0.2726,0.2663,0.2634,0.2605,0.2463,0.2376,0.2678,0.2678,0.2678,0.2678,0,0.1606,0.1622,0.1649,0.1676,0.1703,0.1731,0.1786,0.1821,0.1939,0.2026,0.2157,0.2258,0.2455,0.2568,0.2694,0.2729,0.2624,0.2731,0.272,0.2608,0.2441,0.2347,0.2579,0.268,0.268,0.268,0.268,0.268,0.1565,0.1566,0.1601,0.1618,0.1647,0.1666,0.167,0.1749,0.1825,0.1944,0.2089,0.2233,0.2475,0.2673,0.2684,0.2744,0.2639,0.2714,0.2689,0.2555,0.2427,0.2662,0.2751,0.2752,0.2752,0.2752,0.2752,0,0.151,0.1524,0.1544,0.1562,0.1562,0.1596,0.1641,0.1645,0.1706,0.1867,0.1987,0.2272,0.2454,0.2617,0.2798,0.2743,0.2571,0.268,0.2497,0.2416,0.2681,0.2644,0.2691,0.2691,0.2691,0.2691,0.2691,0.2691,0.1484,0.1478,0.1488,0.1469,0.148,0.1454,0.146,0.149,0.1585,0.1751,0.1918,0.2091,0.2474,0.2799,0.2863,0.2773,0.2538,0.2455,0.2367,0.2615,0.2616,0.2617,0.2576,0.2608,0.2608,0.2025,0.2021,0.2018]},{"header":{"parameterUnit":"m.s-1","parameterCategory":2,"la1":30.2991,"la2":30.254,"lo1":-89.0895,"lo2":-89.0444,"dy":0.0017,"dx":0.0017,"nx":28,"ny":28,"refTime":"2025-03-31T09:00:00:Z","depth":"0","parameterNumber":3,"parameterNumberName":"V-component_of_CURRENTS"},"data":[0,0,0,0,0,0,0,0,0,0,0,0,0,0,0,0,0,0,0,0,0,0,0,0,0,0,0,0,0,0,0,0,0,0,0,0,0,0,0,0,0,0,0,0,0,0,0,0,0,0,0,0,0,0,0,0,0,0,-0.0114,-0.0115,0,-0.0175,-0.0176,-0.0177,-0.0216,-0.0216,-0.0216,-0.0217,-0.0302,-0.0304,-0.0306,0,0,0,0,0,0,0,0,0,0,0,0,0,-0.0067,-0.0067,-0.0114,-0.0115,-0.0115,-0.0175,-0.0176,-0.0177,-0.0216,-0.0216,-0.0216,-0.0217,-0.0301,-0.0303,-0.0306,0,0,0,0,0,0,0,0,0,0,0,0,0,-0.0104,-0.0068,-0.0114,-0.0142,-0.0145,-0.0175,-0.0176,-0.0177,-0.0216,-0.0216,-0.0216,-0.0217,-0.03,-0.0303,-0.0306,-0.032,0,0,-0.0316,-0.0317,0,0,0,0,0,0,0,0,-0.0102,-0.0106,-0.0137,-0.014,-0.0143,-0.0188,-0.0191,-0.0226,-0.0216,-0.0189,-0.0217,-0.0217,-0.0265,-0.0271,-0.0283,-0.0324,-0.0328,-0.0316,-0.0318,-0.0319,-0.032,0,0,0,0,0,0,0,-0.0099,-0.0104,-0.0139,-0.0138,-0.0141,-0.0164,-0.0169,-0.0198,-0.0226,-0.0192,-0.0195,-0.0201,-0.0267,-0.0279,-0.0285,-0.0329,-0.0316,-0.0319,-0.0321,-0.0322,-0.0384,-0.0384,0,0,0,0,0,0,-0.0088,-0.0101,-0.0137,-0.0141,-0.0122,-0.0164,-0.017,-0.0174,-0.0225,-0.0233,-0.02,-0.0202,-0.0274,-0.0281,-0.0288,-0.0301,-0.0319,-0.0322,-0.0324,-0.0384,-0.0384,-0.0384,0,0,0,0,0,0,-0.0087,-0.0091,-0.0134,-0.0122,-0.0129,-0.0164,-0.0168,-0.0175,-0.0187,-0.0231,-0.024,-0.0205,-0.0274,-0.0284,-0.031,-0.0304,-0.0324,-0.0327,-0.0385,-0.0384,-0.0384,-0.033,0,0,0,0,0,0,-0.0086,-0.009,-0.0088,-0.0121,-0.0129,-0.0146,-0.0168,-0.0176,-0.019,-0.0193,-0.0238,-0.0247,-0.0275,-0.0305,-0.0313,-0.0309,-0.0329,-0.0385,-0.0385,-0.0384,-0.0332,-0.0328,-0.0324,0,0,0,0,0,-0.0084,-0.0078,-0.0088,-0.0092,-0.0126,-0.0146,-0.0152,-0.0178,-0.0189,-0.0191,-0.0222,-0.0245,-0.0308,-0.0308,-0.0317,-0.0314,-0.0385,-0.0385,-0.0384,-0.0334,-0.0329,-0.0324,0,0,0,0,0,0,-0.0055,-0.0082,-0.0094,-0.0096,-0.0116,-0.0152,-0.0155,-0.0174,-0.02,-0.0202,-0.0245,-0.0255,-0.0276,-0.0302,-0.03,-0.033,-0.035,-0.0351,-0.0308,-0.0304,-0.03,-0.029,-0.0332,0,0,0,0,0,-0.0047,-0.0051,-0.008,-0.0081,-0.0089,-0.0121,-0.0132,-0.0149,-0.0177,-0.0189,-0.022,-0.0253,-0.0281,-0.0297,-0.0326,-0.0343,-0.0366,-0.0347,-0.0343,-0.0339,-0.0338,-0.0371,-0.037,-0.0382,-0.0382,-0.0382,0,0,-0.0037,-0.0052,-0.0054,-0.0075,-0.0093,-0.0098,-0.0128,-0.014,-0.0145,-0.0194,-0.0208,-0.0241,-0.0283,-0.0302,-0.0313,-0.0323,-0.0345,-0.0339,-0.0335,-0.0336,-0.0371,-0.0369,-0.0368,-0.0382,-0.0382,-0.0382,0,0,-0.0014,-0.0028,-0.0023,-0.0037,-0.0059,-0.0078,-0.0078,-0.011,-0.0124,-0.0143,-0.0178,-0.0207,-0.0249,-0.0278,-0.0298,-0.0291,-0.0323,-0.0298,-0.0271,-0.0304,-0.0303,-0.0303,-0.0314,-0.0316,-0.0296,-0.0296,-0.0296,0,0.0001,0.0002,-0.0024,-0.0023,-0.0029,-0.0065,-0.0059,-0.0078,-0.0114,-0.0124,-0.0139,-0.0202,-0.0238,-0.0265,-0.0263,-0.0282,-0.0299,-0.0284,-0.0298,-0.0298,-0.0299,-0.0312,-0.0314,-0.0293,-0.0293,-0.0294,-0.0294,0,0.0025,0.0026,0.0029,0.0019,0.0009,0.0009,-0.0019,-0.0028,-0.0049,-0.0074,-0.0103,-0.0154,-0.0191,-0.0206,-0.0235,-0.0255,-0.0264,-0.0288,-0.0308,-0.0294,-0.0308,-0.0311,-0.0289,-0.029,-0.0291,-0.0292,0,0,0.0062,0.0049,0.0051,0.0057,0.0033,0.0031,0.0025,0.0009,0.0011,-0.0032,-0.0037,-0.0097,-0.0127,-0.0153,-0.0193,-0.0224,-0.0241,-0.0253,-0.0256,-0.026,-0.0297,-0.0293,-0.0296,-0.0268,-0.0269,-0.0269,-0.0299,0,0.0091,0.0107,0.0089,0.0108,0.0115,0.0086,0.0086,0.0065,0.0042,0.0029,-0.003,-0.0052,-0.0106,-0.0118,-0.016,-0.0221,-0.0249,-0.023,-0.0314,-0.0316,-0.0311,-0.03,-0.0285,-0.031,-0.0302,-0.0303,-0.0303,0,0.0121,0.0128,0.015,0.0157,0.0158,0.0162,0.0161,0.0156,0.0122,0.0103,0.0061,0.002,-0.0034,-0.0077,-0.0178,-0.0162,-0.0224,-0.0273,-0.0276,-0.0295,-0.0318,-0.0326,-0.0316,-0.0447,-0.0308,-0.0308,-0.0307,0,0.0163,0.0174,0.0195,0.0196,0.0194,0.0202,0.02,0.0177,0.0187,0.015,0.0155,0.0075,0.0054,-0.0046,-0.0146,-0.0164,-0.0247,-0.0286,-0.0339,-0.0339,-0.0355,-0.0355,-0.0479,-0.0355,-0.0355,-0.0355,-0.0355,0,0.0201,0.0221,0.0218,0.0232,0.0266,0.0245,0.0273,0.026,0.0254,0.0276,0.0196,0.0206,0.0061,-0.0001,-0.0116,-0.0225,-0.0225,-0.033,-0.0349,-0.0333,-0.0331,-0.047,-0.056,-0.0356,-0.0356,-0.0355,-0.0355,0,0.0241,0.0239,0.0268,0.0277,0.0286,0.0307,0.033,0.0352,0.0335,0.0364,0.0361,0.031,0.0231,0.0093,-0.0051,-0.0165,-0.0366,-0.0321,-0.028,-0.0294,-0.048,-0.0567,-0.0738,-0.0812,-0.0395,-0.0395,-0.0395,0,0.0263,0.0281,0.0307,0.0332,0.0339,0.0367,0.0394,0.0391,0.0422,0.0437,0.0466,0.0413,0.0395,0.0193,-0.0016,-0.0205,-0.0356,-0.0325,-0.0369,-0.0484,-0.0597,-0.0675,-0.0731,-0.0364,-0.0363,-0.0363,-0.0363,0,0.0306,0.0312,0.0337,0.0388,0.0423,0.0463,0.0502,0.0545,0.0554,0.0594,0.0645,0.0641,0.046,0.0295,0.0034,-0.0122,-0.0438,-0.0329,-0.047,-0.06,-0.0674,-0.0754,-0.0338,-0.0362,-0.0362,-0.0362,-0.0362,-0.0362,0.0341,0.0365,0.0398,0.0449,0.0492,0.0554,0.0602,0.0663,0.0737,0.0816,0.0799,0.0838,0.0582,0.0235,-0.0003,-0.0405,-0.044,-0.0527,-0.0625,-0.0694,-0.077,-0.0338,-0.0373,-0.0373,-0.0373,-0.0373,-0.0373,0,0.0383,0.0411,0.046,0.0519,0.0575,0.0588,0.0674,0.0735,0.0844,0.0945,0.1003,0.0949,0.0595,0.0225,-0.0305,-0.062,-0.0776,-0.0807,-0.0927,-0.0972,-0.0598,-0.0599,-0.0658,-0.0658,-0.0657,-0.0657,-0.0657,-0.0657,0.0409,0.046,0.0482,0.0578,0.0624,0.0705,0.076,0.0865,0.0961,0.1117,0.1202,0.1247,0.1026,-0.0029,-0.0731,-0.0917,-0.1175,-0.1237,-0.1365,-0.1114,-0.1095,-0.1078,-0.11,-0.1262,-0.1263,-0.1694,-0.1698,-0.1701]}],[{"header":{"parameterUnit":"m.s-1","parameterCategory":2,"la1":30.2991,"la2":30.254,"lo1":-89.0895,"lo2":-89.0444,"dy":0.0017,"dx":0.0017,"nx":28,"ny":28,"refTime":"2025-03-31T09:00:00:Z","depth":"2","parameterNumber":2,"parameterNumberName":"U-component_of_CURRENTS"},"data":[0,0,0,0,0,0,0,0,0,0,0,0,0,0,0,0,0,0,0,0,0,0,0,0,0,0,0,0,0,0,0,0,0,0,0,0,0,0,0,0,0,0,0,0,0,0,0,0,0,0,0,0,0,0,0,0,0,0,0.1847,0.1848,0,0.1874,0.1874,0.1874,0.1876,0.1876,0.1876,0.1876,0.1884,0.1885,0.1885,0,0,0,0,0,0,0,0,0,0,0,0,0,0.1799,0.18,0.1847,0.1848,0.1848,0.1874,0.1874,0.1874,0.1876,0.1876,0.1876,0.1876,0.1884,0.1885,0.1885,0,0,0,0,0,0,0,0,0,0,0,0,0,0.1821,0.18,0.1847,0.1853,0.1854,0.1874,0.1874,0.1874,0.1876,0.1876,0.1876,0.1876,0.1884,0.1885,0.1885,0.1892,0,0,0.1887,0.1887,0,0,0,0,0,0,0,0,0.182,0.1823,0.1852,0.1853,0.1854,0.1873,0.1861,0.188,0.1877,0.1866,0.1876,0.1876,0.188,0.1881,0.1884,0.1893,0.1893,0.1887,0.1887,0.1887,0.1887,0,0,0,0,0,0,0,0.1818,0.1821,0.1856,0.1853,0.1854,0.1856,0.1858,0.1864,0.1872,0.1867,0.1868,0.1874,0.188,0.1884,0.1884,0.1893,0.1887,0.1887,0.1887,0.1888,0.1943,0.1944,0,0,0,0,0,0,0.1819,0.182,0.1855,0.1857,0.1838,0.1857,0.186,0.1866,0.1873,0.1874,0.1874,0.1874,0.1883,0.1884,0.1885,0.1922,0.1887,0.1888,0.1888,0.1942,0.1943,0.1944,0,0,0,0,0,0,0.1818,0.1822,0.1854,0.184,0.1845,0.1858,0.1865,0.1867,0.1874,0.1878,0.1879,0.188,0.1883,0.1884,0.1899,0.1921,0.1888,0.1888,0.194,0.1942,0.1944,0.1979,0,0,0,0,0,0,0.1816,0.1821,0.1825,0.184,0.1846,0.1872,0.1865,0.1867,0.1878,0.1878,0.1884,0.1884,0.1883,0.1898,0.1899,0.1922,0.1889,0.1939,0.1941,0.1943,0.1977,0.1982,0.1986,0,0,0,0,0,0.1814,0.1821,0.1825,0.1829,0.1851,0.1873,0.1876,0.1883,0.1879,0.1887,0.1891,0.1884,0.1913,0.1899,0.1901,0.1923,0.1938,0.1941,0.1943,0.1974,0.1981,0.1986,0,0,0,0,0,0,0.1798,0.1823,0.1827,0.1839,0.1858,0.1874,0.1882,0.1886,0.1896,0.1895,0.1894,0.1895,0.1918,0.1916,0.1901,0.1947,0.1926,0.1929,0.195,0.1956,0.1961,0.1967,0.1889,0,0,0,0,0,0.1798,0.1812,0.1834,0.1844,0.1854,0.1868,0.1877,0.1885,0.1896,0.19,0.1905,0.1914,0.193,0.1938,0.1948,0.1969,0.1984,0.1987,0.1992,0.1996,0.2003,0.2047,0.2057,0.1953,0.1953,0.1953,0,0,0.1793,0.181,0.1815,0.1842,0.1855,0.1876,0.1873,0.1892,0.191,0.19,0.1921,0.1928,0.1939,0.1966,0.1977,0.1967,0.2036,0.1999,0.2003,0.2008,0.2051,0.2061,0.207,0.1955,0.1954,0.1954,0,0,0.1795,0.1807,0.1821,0.1841,0.1868,0.1881,0.1888,0.1909,0.1921,0.1942,0.1946,0.1969,0.1982,0.2004,0.2015,0.2054,0.2059,0.2056,0.2088,0.2131,0.214,0.2148,0.2186,0.2197,0.206,0.206,0.206,0,0.1786,0.181,0.1828,0.1851,0.1868,0.1885,0.1906,0.1924,0.1947,0.1965,0.1953,0.2,0.2005,0.2054,0.2068,0.2066,0.2088,0.2062,0.2138,0.2146,0.2153,0.2191,0.2203,0.2062,0.2062,0.2062,0.2062,0,0.1803,0.1823,0.1835,0.187,0.1891,0.1912,0.1942,0.1964,0.1976,0.1997,0.2041,0.2054,0.2085,0.2093,0.209,0.2152,0.215,0.2137,0.2121,0.2166,0.2203,0.2214,0.2065,0.2064,0.2064,0.2063,0,0,0.1774,0.1834,0.1837,0.1858,0.1904,0.1919,0.1961,0.2005,0.2034,0.206,0.2104,0.2137,0.2148,0.2162,0.217,0.2205,0.2276,0.2195,0.2197,0.2232,0.2375,0.2359,0.2369,0.2277,0.2279,0.2281,0.2381,0,0.178,0.1822,0.1854,0.189,0.1913,0.195,0.1988,0.2031,0.2064,0.2111,0.2147,0.2186,0.2175,0.2193,0.2232,0.2267,0.2308,0.2251,0.2328,0.233,0.2309,0.2383,0.2198,0.227,0.2392,0.2394,0.2396,0,0.1781,0.1812,0.185,0.1907,0.1921,0.1945,0.2007,0.2043,0.212,0.2151,0.2205,0.2232,0.2302,0.2274,0.2372,0.2336,0.2362,0.2382,0.2386,0.2366,0.2336,0.2245,0.2287,0.2415,0.2413,0.2412,0.2411,0,0.1746,0.1805,0.1834,0.1852,0.1921,0.1946,0.1981,0.2052,0.2091,0.2178,0.2218,0.2298,0.2341,0.2395,0.2439,0.2415,0.2536,0.2508,0.2519,0.2518,0.2374,0.2356,0.2577,0.2577,0.2576,0.2576,0.2576,0,0.1738,0.1756,0.1818,0.1832,0.1866,0.1923,0.1965,0.2018,0.2101,0.2153,0.2232,0.2289,0.2373,0.2445,0.2475,0.2545,0.2572,0.2548,0.2553,0.2382,0.2365,0.2492,0.2481,0.258,0.2579,0.2578,0.2578,0,0.1692,0.1736,0.1764,0.1831,0.1848,0.1867,0.1941,0.1978,0.2067,0.2139,0.2172,0.2304,0.2411,0.2485,0.2583,0.2591,0.2653,0.2661,0.2457,0.2437,0.2597,0.2586,0.2704,0.2704,0.2705,0.2705,0.2705,0,0.1674,0.1686,0.1739,0.1754,0.1781,0.182,0.1852,0.1943,0.1989,0.2139,0.2175,0.2313,0.2406,0.2562,0.2603,0.2681,0.2686,0.2535,0.2458,0.2622,0.2615,0.2604,0.2593,0.2281,0.2277,0.2275,0.2273,0,0.1634,0.165,0.1676,0.1703,0.173,0.1757,0.1812,0.1845,0.1961,0.2042,0.2165,0.2258,0.2421,0.244,0.2543,0.2548,0.2512,0.2486,0.272,0.2281,0.2232,0.2222,0.2224,0.2249,0.2252,0.2253,0.2255,0.2256,0.1594,0.1596,0.1629,0.1647,0.1675,0.1693,0.1697,0.177,0.184,0.1937,0.2075,0.2158,0.2252,0.2336,0.2309,0.229,0.246,0.2352,0.2355,0.2363,0.23,0.2256,0.2265,0.2267,0.2269,0.2271,0.2272,0,0.1539,0.1554,0.1573,0.1591,0.159,0.1625,0.1668,0.1664,0.1714,0.1828,0.1921,0.1873,0.1933,0.2005,0.197,0.2021,0.1951,0.1922,0.1807,0.1835,0.1859,0.1764,0.1589,0.1587,0.1584,0.1582,0,0,0.1514,0.1507,0.1516,0.1496,0.1509,0.1483,0.1487,0.1503,0.1562,0.1599,0.1638,0.1813,0.1957,0.1727,0.1741,0.1652,0.1706,0.1586,0.2146,0.2037,0.2056,0.2139,0.203,0,0,0,0,0]},{"header":{"parameterUnit":"m.s-1","parameterCategory":2,"la1":30.2991,"la2":30.254,"lo1":-89.0895,"lo2":-89.0444,"dy":0.0017,"dx":0.0017,"nx":28,"ny":28,"refTime":"2025-03-31T09:00:00:Z","depth":"2","parameterNumber":3,"parameterNumberName":"V-component_of_CURRENTS"},"data":[0,0,0,0,0,0,0,0,0,0,0,0,0,0,0,0,0,0,0,0,0,0,0,0,0,0,0,0,0,0,0,0,0,0,0,0,0,0,0,0,0,0,0,0,0,0,0,0,0,0,0,0,0,0,0,0,0,0,-0.0179,-0.018,0,-0.0239,-0.024,-0.0241,-0.0278,-0.0278,-0.0278,-0.0278,-0.0362,-0.0364,-0.0367,0,0,0,0,0,0,0,0,0,0,0,0,0,-0.0132,-0.0133,-0.0179,-0.018,-0.018,-0.0239,-0.024,-0.0241,-0.0278,-0.0278,-0.0278,-0.0279,-0.0362,-0.0364,-0.0367,0,0,0,0,0,0,0,0,0,0,0,0,0,-0.0169,-0.0133,-0.0179,-0.0206,-0.0209,-0.0239,-0.024,-0.0241,-0.0278,-0.0278,-0.0278,-0.0279,-0.0361,-0.0364,-0.0367,-0.0382,0,0,-0.0377,-0.0378,0,0,0,0,0,0,0,0,-0.0167,-0.0171,-0.0201,-0.0204,-0.0207,-0.0251,-0.0254,-0.0289,-0.0278,-0.0252,-0.0278,-0.0279,-0.0327,-0.0333,-0.0344,-0.0386,-0.0389,-0.0377,-0.0379,-0.038,-0.0381,0,0,0,0,0,0,0,-0.0164,-0.0168,-0.0203,-0.0202,-0.0205,-0.0227,-0.0232,-0.0261,-0.0288,-0.0254,-0.0257,-0.0263,-0.0329,-0.0341,-0.0346,-0.0391,-0.0377,-0.038,-0.0382,-0.0383,-0.0445,-0.0445,0,0,0,0,0,0,-0.0154,-0.0166,-0.0201,-0.0205,-0.0187,-0.0227,-0.0233,-0.0237,-0.0288,-0.0295,-0.0263,-0.0264,-0.0335,-0.0343,-0.0349,-0.0361,-0.038,-0.0383,-0.0385,-0.0445,-0.0445,-0.0445,0,0,0,0,0,0,-0.0152,-0.0156,-0.0199,-0.0187,-0.0194,-0.0228,-0.0232,-0.0238,-0.0249,-0.0293,-0.0302,-0.0267,-0.0336,-0.0345,-0.0371,-0.0365,-0.0385,-0.0387,-0.0445,-0.0445,-0.0445,-0.039,0,0,0,0,0,0,-0.0151,-0.0155,-0.0153,-0.0186,-0.0194,-0.021,-0.0232,-0.0239,-0.0252,-0.0255,-0.03,-0.0308,-0.0337,-0.0366,-0.0374,-0.037,-0.039,-0.0446,-0.0445,-0.0445,-0.0392,-0.0388,-0.0384,0,0,0,0,0,-0.0149,-0.0143,-0.0153,-0.0157,-0.019,-0.021,-0.0216,-0.0242,-0.0252,-0.0253,-0.0284,-0.0307,-0.0369,-0.0369,-0.0378,-0.0374,-0.0446,-0.0445,-0.0445,-0.0394,-0.0389,-0.0384,0,0,0,0,0,0,-0.012,-0.0147,-0.0159,-0.0161,-0.0181,-0.0216,-0.0219,-0.0237,-0.0262,-0.0264,-0.0306,-0.0317,-0.0337,-0.0363,-0.0361,-0.0391,-0.041,-0.0412,-0.0368,-0.0364,-0.036,-0.0349,-0.0392,0,0,0,0,0,-0.0113,-0.0116,-0.0145,-0.0146,-0.0154,-0.0185,-0.0196,-0.0213,-0.024,-0.0251,-0.0282,-0.0314,-0.0342,-0.0358,-0.0387,-0.0404,-0.0426,-0.0407,-0.0403,-0.0399,-0.0397,-0.0429,-0.0428,-0.0443,-0.0443,-0.0443,0,0,-0.0102,-0.0117,-0.0119,-0.0141,-0.0158,-0.0163,-0.0192,-0.0203,-0.0207,-0.0257,-0.027,-0.0302,-0.0344,-0.0362,-0.0373,-0.0383,-0.0404,-0.0399,-0.0395,-0.0395,-0.0429,-0.0427,-0.0426,-0.0443,-0.0443,-0.0443,0,0,-0.008,-0.0094,-0.0089,-0.0102,-0.0124,-0.0143,-0.0143,-0.0173,-0.0186,-0.0205,-0.024,-0.0268,-0.0309,-0.0338,-0.0358,-0.035,-0.0382,-0.0357,-0.0329,-0.0361,-0.036,-0.0359,-0.037,-0.0371,-0.0355,-0.0355,-0.0355,0,-0.0064,-0.0064,-0.009,-0.0089,-0.0094,-0.0129,-0.0123,-0.0142,-0.0177,-0.0185,-0.02,-0.0262,-0.0298,-0.0323,-0.0321,-0.0341,-0.0357,-0.0342,-0.0355,-0.0355,-0.0355,-0.0367,-0.0369,-0.0352,-0.0352,-0.0353,-0.0353,0,-0.0041,-0.004,-0.0036,-0.0045,-0.0055,-0.0054,-0.0082,-0.009,-0.0111,-0.0135,-0.0162,-0.0212,-0.0248,-0.0264,-0.0293,-0.0311,-0.032,-0.0345,-0.0364,-0.035,-0.0364,-0.0367,-0.0348,-0.0349,-0.035,-0.0351,0,0,-0.0004,-0.0016,-0.0014,-0.0008,-0.003,-0.0032,-0.0037,-0.0052,-0.0048,-0.0091,-0.0094,-0.0153,-0.0182,-0.0207,-0.0247,-0.0278,-0.0293,-0.0308,-0.0311,-0.0314,-0.0348,-0.0346,-0.0349,-0.0321,-0.0322,-0.0322,-0.035,0,0.0025,0.0042,0.0024,0.0044,0.0052,0.0024,0.0025,0.0006,-0.0016,-0.0028,-0.0086,-0.0107,-0.016,-0.0172,-0.0213,-0.0274,-0.0301,-0.0283,-0.0366,-0.0368,-0.0365,-0.0353,-0.0338,-0.0362,-0.0353,-0.0354,-0.0354,0,0.0056,0.0063,0.0086,0.0094,0.0096,0.01,0.0102,0.0097,0.0066,0.0047,0.0008,-0.0033,-0.0084,-0.0129,-0.0227,-0.0212,-0.0273,-0.0323,-0.0326,-0.0347,-0.0372,-0.0379,-0.0368,-0.0359,-0.0359,-0.0358,-0.0358,0,0.0098,0.011,0.0132,0.0133,0.0132,0.0141,0.014,0.012,0.013,0.0095,0.01,0.0024,0.0003,-0.0096,-0.0196,-0.0213,-0.0295,-0.0334,-0.0388,-0.0388,-0.0404,-0.0404,-0.0401,-0.04,-0.04,-0.04,-0.04,0,0.0136,0.0157,0.0155,0.0169,0.0204,0.0184,0.0213,0.0202,0.0197,0.0218,0.0142,0.0151,0.001,-0.0052,-0.0165,-0.0274,-0.0274,-0.0378,-0.0398,-0.0382,-0.038,-0.0407,-0.0407,-0.0401,-0.0401,-0.0401,-0.0401,0,0.0177,0.0175,0.0205,0.0215,0.0224,0.0246,0.0269,0.0292,0.0276,0.0305,0.0302,0.0251,0.0171,0.0037,-0.0105,-0.0216,-0.0333,-0.0371,-0.033,-0.0345,-0.0413,-0.041,-0.0443,-0.0443,-0.0443,-0.0443,-0.0444,0,0.0198,0.0217,0.0243,0.0269,0.0276,0.0304,0.0331,0.0329,0.0359,0.0373,0.04,0.0347,0.0325,0.0125,-0.0079,-0.0264,-0.0301,-0.0377,-0.0419,-0.0402,-0.0419,-0.0415,-0.0412,-0.0412,-0.0412,-0.0412,-0.0412,0,0.0241,0.0247,0.0272,0.0323,0.0358,0.0397,0.0436,0.0477,0.0486,0.0521,0.0567,0.0559,0.0379,0.0204,-0.005,-0.0189,-0.0352,-0.0381,-0.0377,-0.0401,-0.0375,-0.0391,-0.0389,-0.0411,-0.0411,-0.0411,-0.0411,-0.0411,0.0275,0.0299,0.0332,0.0382,0.0425,0.0484,0.053,0.0582,0.0651,0.0705,0.0694,0.0682,0.048,0.0164,-0.0065,-0.0323,-0.0325,-0.0427,-0.0426,-0.0426,-0.0415,-0.0391,-0.0426,-0.0427,-0.0427,-0.0427,-0.0427,0,0.0313,0.0343,0.0391,0.0448,0.0499,0.0517,0.0599,0.064,0.0733,0.0786,0.0823,0.0643,0.0457,0.0215,-0.0158,-0.0376,-0.0408,-0.0451,-0.0442,-0.0441,-0.0441,-0.043,-0.0446,-0.0446,-0.0447,-0.0448,0,0,0.0336,0.0384,0.0405,0.0495,0.0544,0.0615,0.0666,0.0734,0.0783,0.0833,0.0838,0.082,0.0538,0.0273,-0.0023,-0.0235,-0.0295,-0.0286,-0.0249,-0.0204,-0.0201,-0.0407,-0.0387,0,0,0,0,0]}],[{"header":{"parameterUnit":"m.s-1","parameterCategory":2,"la1":30.2991,"la2":30.254,"lo1":-89.0895,"lo2":-89.0444,"dy":0.0017,"dx":0.0017,"nx":28,"ny":28,"refTime":"2025-03-31T09:00:00:Z","depth":"4","parameterNumber":2,"parameterNumberName":"U-component_of_CURRENTS"},"data":[0,0,0,0,0,0,0,0,0,0,0,0,0,0,0,0,0,0,0,0,0,0,0,0,0,0,0,0,0,0,0,0,0,0,0,0,0,0,0,0,0,0,0,0,0,0,0,0,0,0,0,0,0,0,0,0,0,0,0.1254,0.1255,0,0.1304,0.1305,0.1305,0.1346,0.1347,0.1347,0.1348,0.1394,0.1395,0.1396,0,0,0,0,0,0,0,0,0,0,0,0,0,0.1183,0.1184,0.1254,0.1255,0.1256,0.1304,0.1305,0.1305,0.1346,0.1347,0.1347,0.1348,0.1394,0.1395,0.1396,0,0,0,0,0,0,0,0,0,0,0,0,0,0.122,0.1184,0.1254,0.1283,0.1286,0.1304,0.1305,0.1305,0.1346,0.1347,0.1348,0.1348,0.1394,0.1395,0.1396,0.1385,0,0,0.1399,0.14,0,0,0,0,0,0,0,0,0.1218,0.1222,0.1278,0.1281,0.1285,0.1321,0.1297,0.1332,0.1346,0.1322,0.1348,0.1349,0.137,0.1373,0.1378,0.1387,0.1389,0.1399,0.14,0.14,0.1401,0,0,0,0,0,0,0,0.1215,0.122,0.1272,0.1279,0.1283,0.129,0.1296,0.1304,0.1339,0.1324,0.1327,0.1335,0.1372,0.1377,0.138,0.139,0.1399,0.14,0.1401,0.1401,0.1476,0.1478,0,0,0,0,0,0,0.1212,0.1218,0.1271,0.1274,0.1255,0.1291,0.1297,0.1307,0.1339,0.1345,0.1334,0.1337,0.1375,0.1378,0.1382,0.1444,0.14,0.1401,0.1402,0.1475,0.1477,0.1478,0,0,0,0,0,0,0.121,0.1216,0.1269,0.1248,0.1256,0.1291,0.1302,0.1308,0.1341,0.1347,0.1353,0.1364,0.1376,0.138,0.1416,0.1443,0.1402,0.1403,0.1473,0.1475,0.1477,0.1521,0,0,0,0,0,0,0.1208,0.1215,0.1233,0.1248,0.1257,0.1298,0.1301,0.1308,0.1343,0.1348,0.1374,0.1378,0.1377,0.1414,0.1417,0.1444,0.1404,0.1472,0.1474,0.1477,0.1517,0.1524,0.1529,0,0,0,0,0,0.1205,0.1222,0.1234,0.1241,0.1277,0.1299,0.1304,0.133,0.1344,0.1362,0.1385,0.1379,0.1433,0.1416,0.1419,0.1447,0.147,0.1474,0.1477,0.1515,0.1523,0.1529,0,0,0,0,0,0,0.1202,0.1229,0.1242,0.1267,0.1291,0.1307,0.133,0.1344,0.1376,0.1389,0.1393,0.1399,0.144,0.1438,0.142,0.1477,0.1452,0.1455,0.148,0.1487,0.1493,0.1486,0.1405,0,0,0,0,0,0.1209,0.1232,0.1253,0.1278,0.1292,0.1315,0.1333,0.1351,0.1374,0.139,0.1409,0.143,0.1449,0.1465,0.1479,0.1508,0.1513,0.1529,0.1535,0.154,0.1538,0.1568,0.1576,0.1488,0.1488,0.1488,0,0,0.1215,0.1234,0.1248,0.128,0.1301,0.1323,0.1329,0.1364,0.1387,0.1389,0.1435,0.1452,0.1462,0.1497,0.1515,0.1503,0.1573,0.1544,0.1548,0.1543,0.1572,0.158,0.1588,0.149,0.149,0.149,0,0,0.1228,0.1256,0.1276,0.1298,0.1336,0.1348,0.1364,0.1395,0.142,0.1458,0.1468,0.1501,0.1532,0.1544,0.1553,0.1599,0.1602,0.1612,0.1639,0.1669,0.1676,0.1682,0.1716,0.1725,0.1617,0.1617,0.1617,0,0.1236,0.1263,0.1286,0.131,0.1333,0.1362,0.1386,0.141,0.1452,0.1473,0.1482,0.154,0.1551,0.1588,0.1608,0.1611,0.1633,0.1609,0.1676,0.1682,0.1688,0.1721,0.173,0.1619,0.1619,0.1619,0.1619,0,0.1254,0.1286,0.1302,0.134,0.1366,0.1395,0.1427,0.1461,0.1494,0.1516,0.1571,0.1591,0.1625,0.1638,0.1637,0.1687,0.1693,0.1678,0.1655,0.1699,0.1732,0.1741,0.1623,0.1622,0.1621,0.1621,0,0,0.124,0.1303,0.131,0.1335,0.1387,0.1406,0.1452,0.1494,0.1528,0.1573,0.1618,0.1656,0.1677,0.1687,0.1699,0.1725,0.1789,0.1725,0.1726,0.1755,0.187,0.1777,0.1778,0.1793,0.1794,0.1795,0.1883,0,0.1249,0.1293,0.1325,0.1372,0.1396,0.144,0.1478,0.1523,0.1564,0.1615,0.1649,0.1697,0.1693,0.1724,0.175,0.1779,0.1812,0.1767,0.1826,0.1828,0.1735,0.1784,0.18,0.1889,0.1891,0.1893,0.1894,0,0.1248,0.1281,0.1327,0.139,0.1406,0.1442,0.1508,0.1548,0.1617,0.1653,0.1705,0.1737,0.1793,0.178,0.1854,0.1831,0.1857,0.1873,0.1876,0.1775,0.175,0.1832,0.1909,0.1908,0.1907,0.1906,0.1905,0,0.1212,0.1279,0.1317,0.134,0.1414,0.1451,0.1495,0.1563,0.1605,0.1686,0.1729,0.179,0.1843,0.1876,0.1923,0.1899,0.2,0.1966,0.1908,0.1902,0.194,0.1932,0.2017,0.2016,0.2016,0.2016,0.2016,0,0.1192,0.1226,0.131,0.1329,0.1381,0.1442,0.1502,0.1554,0.1636,0.1683,0.1753,0.18,0.1872,0.1936,0.1953,0.1966,0.2031,0.1919,0.1917,0.1959,0.1952,0.1947,0.1938,0.2019,0.2019,0.2018,0.2017,0,0.1141,0.1197,0.1245,0.1334,0.1365,0.1404,0.1504,0.1542,0.1632,0.1699,0.1733,0.1838,0.1913,0.1979,0.205,0.2003,0.2022,0.2013,0.208,0.208,0.1896,0.1889,0.1936,0.1934,0.1932,0.193,0.1928,0,0.1115,0.1137,0.1235,0.1268,0.1314,0.1382,0.1427,0.1527,0.1565,0.1703,0.1725,0.1846,0.1902,0.1932,0.2004,0.2042,0.202,0.2017,0.1921,0.1894,0.1888,0.1884,0.1879,0.1925,0.1924,0.1923,0.1923,0,0.1066,0.1113,0.1154,0.122,0.1276,0.1324,0.1397,0.1417,0.1527,0.1625,0.1676,0.1724,0.1815,0.1867,0.1928,0.1943,0.2002,0.1993,0.1996,0.1905,0.188,0.1876,0.1874,0.1915,0.1916,0.1917,0.1918,0,0.1032,0.1048,0.1112,0.1159,0.1225,0.125,0.1294,0.1344,0.1397,0.1539,0.1556,0.1684,0.1792,0.182,0.187,0.1887,0.1845,0.1769,0.1783,0.1792,0.1705,0.1649,0.1618,0,0,0,0,0,0.0992,0.1004,0.1046,0.1092,0.1153,0.119,0.1268,0.1313,0.1416,0.1413,0.1478,0.155,0.1622,0.1695,0.1684,0.1818,0.186,0.1798,0.1781,0.1873,0.1882,0.1792,0,0,0,0,0,0,0.0965,0.1004,0.1019,0.1026,0.1045,0.1099,0.1145,0.1213,0.1213,0.1325,0.1374,0.1462,0.1561,0.1616,0.1657,0.168,0.1639,0.1882,0.1878,0.1868,0.1876,0.1883,0.1794,0,0,0,0,0]},{"header":{"parameterUnit":"m.s-1","parameterCategory":2,"la1":30.2991,"la2":30.254,"lo1":-89.0895,"lo2":-89.0444,"dy":0.0017,"dx":0.0017,"nx":28,"ny":28,"refTime":"2025-03-31T09:00:00:Z","depth":"4","parameterNumber":3,"parameterNumberName":"V-component_of_CURRENTS"},"data":[0,0,0,0,0,0,0,0,0,0,0,0,0,0,0,0,0,0,0,0,0,0,0,0,0,0,0,0,0,0,0,0,0,0,0,0,0,0,0,0,0,0,0,0,0,0,0,0,0,0,0,0,0,0,0,0,0,0,-0.0156,-0.0156,0,-0.0198,-0.0199,-0.0199,-0.0231,-0.0231,-0.0231,-0.0232,-0.0298,-0.03,-0.0302,0,0,0,0,0,0,0,0,0,0,0,0,0,-0.0124,-0.0124,-0.0156,-0.0156,-0.0157,-0.0198,-0.0199,-0.0199,-0.0231,-0.0231,-0.0231,-0.0232,-0.0298,-0.03,-0.0302,0,0,0,0,0,0,0,0,0,0,0,0,0,-0.0149,-0.0124,-0.0156,-0.0177,-0.018,-0.0198,-0.0199,-0.0199,-0.0231,-0.0231,-0.0231,-0.0232,-0.0297,-0.03,-0.0302,-0.0308,0,0,-0.0309,-0.031,0,0,0,0,0,0,0,0,-0.0148,-0.0151,-0.0174,-0.0176,-0.0179,-0.0209,-0.0212,-0.0237,-0.0231,-0.0212,-0.0232,-0.0232,-0.027,-0.0275,-0.0282,-0.0312,-0.0314,-0.0309,-0.0311,-0.0312,-0.0312,0,0,0,0,0,0,0,-0.0146,-0.0149,-0.0173,-0.0174,-0.0177,-0.0192,-0.0196,-0.0217,-0.0239,-0.0213,-0.0216,-0.022,-0.0272,-0.028,-0.0284,-0.0315,-0.0309,-0.0311,-0.0313,-0.0313,-0.0359,-0.0359,0,0,0,0,0,0,-0.0139,-0.0147,-0.0172,-0.0174,-0.0164,-0.0192,-0.0197,-0.0199,-0.0238,-0.0244,-0.0219,-0.0221,-0.0276,-0.0281,-0.0287,-0.0294,-0.0312,-0.0314,-0.0315,-0.036,-0.0359,-0.0359,0,0,0,0,0,0,-0.0138,-0.014,-0.017,-0.0162,-0.0166,-0.0192,-0.0195,-0.02,-0.0211,-0.0243,-0.0249,-0.0226,-0.0276,-0.0283,-0.0304,-0.0297,-0.0315,-0.0317,-0.036,-0.0359,-0.0359,-0.031,0,0,0,0,0,0,-0.0137,-0.014,-0.014,-0.0161,-0.0166,-0.0178,-0.0195,-0.02,-0.0213,-0.0216,-0.0251,-0.0257,-0.0277,-0.0301,-0.0307,-0.03,-0.0319,-0.036,-0.036,-0.0359,-0.0312,-0.0309,-0.0305,0,0,0,0,0,-0.0135,-0.0132,-0.014,-0.0143,-0.0166,-0.0178,-0.0182,-0.0202,-0.0213,-0.0215,-0.0238,-0.0256,-0.0303,-0.0302,-0.031,-0.0304,-0.036,-0.036,-0.0359,-0.0314,-0.0309,-0.0305,0,0,0,0,0,0,-0.0119,-0.0136,-0.0145,-0.0147,-0.0161,-0.0183,-0.0187,-0.0201,-0.0221,-0.0225,-0.0256,-0.0264,-0.028,-0.0299,-0.0298,-0.0316,-0.0334,-0.0335,-0.0297,-0.0293,-0.029,-0.0272,-0.0321,0,0,0,0,0,-0.0115,-0.0117,-0.0136,-0.0138,-0.0143,-0.0165,-0.0173,-0.0186,-0.0206,-0.0215,-0.0239,-0.0264,-0.0283,-0.0294,-0.0316,-0.0325,-0.0342,-0.0326,-0.0323,-0.032,-0.0311,-0.0326,-0.0323,-0.0358,-0.0358,-0.0358,0,0,-0.0109,-0.0119,-0.0121,-0.0135,-0.0147,-0.0147,-0.0171,-0.018,-0.0179,-0.0219,-0.0228,-0.0255,-0.0284,-0.0295,-0.0303,-0.031,-0.0321,-0.0319,-0.0316,-0.0309,-0.0325,-0.0322,-0.0319,-0.0358,-0.0358,-0.0358,0,0,-0.0094,-0.0106,-0.0102,-0.0109,-0.0124,-0.0136,-0.0137,-0.0158,-0.0167,-0.0181,-0.0207,-0.0226,-0.0259,-0.0272,-0.0284,-0.0275,-0.0304,-0.0286,-0.0252,-0.0267,-0.0264,-0.0262,-0.0285,-0.0285,-0.0282,-0.0282,-0.0282,0,-0.0086,-0.0082,-0.0102,-0.0098,-0.0099,-0.0127,-0.0118,-0.013,-0.0155,-0.0157,-0.0178,-0.0217,-0.0245,-0.0248,-0.0247,-0.0266,-0.0283,-0.0264,-0.0261,-0.0259,-0.0258,-0.0282,-0.0283,-0.0279,-0.028,-0.028,-0.028,0,-0.0066,-0.0063,-0.006,-0.0062,-0.0066,-0.0064,-0.0079,-0.0083,-0.0101,-0.0115,-0.0129,-0.0167,-0.0188,-0.0201,-0.0223,-0.0222,-0.0242,-0.0257,-0.0268,-0.0251,-0.0278,-0.028,-0.0276,-0.0277,-0.0277,-0.0278,0,0,-0.0046,-0.0045,-0.0044,-0.0034,-0.0045,-0.0043,-0.0038,-0.0039,-0.003,-0.0062,-0.0056,-0.0093,-0.0118,-0.0133,-0.0163,-0.0176,-0.0187,-0.0208,-0.021,-0.0225,-0.0227,-0.0231,-0.0233,-0.0202,-0.0202,-0.0201,-0.0253,0,-0.0023,-0.0001,-0.0009,0.0015,0.0026,0.0011,0.0021,0.0015,0.0001,-0.0001,-0.0036,-0.0049,-0.009,-0.0102,-0.0121,-0.0171,-0.0188,-0.0172,-0.0247,-0.025,-0.0249,-0.0233,-0.0201,-0.0254,-0.0255,-0.0255,-0.0255,0,0.0001,0.0014,0.004,0.0061,0.0065,0.0074,0.0089,0.0093,0.0083,0.0069,0.005,0.0018,-0.0009,-0.0047,-0.0115,-0.0105,-0.0159,-0.0199,-0.0203,-0.0221,-0.0255,-0.0276,-0.0258,-0.0258,-0.0258,-0.0257,-0.0257,0,0.0029,0.0051,0.0076,0.0081,0.0095,0.0109,0.0116,0.0115,0.0128,0.0112,0.0114,0.0073,0.0052,-0.0014,-0.0103,-0.011,-0.018,-0.0202,-0.0255,-0.0257,-0.0261,-0.0263,-0.0244,-0.0244,-0.0243,-0.0243,-0.0243,0,0.0057,0.0078,0.0091,0.0106,0.0143,0.0139,0.0172,0.0172,0.0179,0.02,0.015,0.0154,0.006,0.0006,-0.0081,-0.0171,-0.0167,-0.0242,-0.0264,-0.0241,-0.024,-0.0262,-0.0264,-0.0245,-0.0245,-0.0244,-0.0244,0,0.0079,0.0087,0.0119,0.0143,0.0155,0.0178,0.021,0.0234,0.023,0.0256,0.0254,0.0216,0.0146,0.0046,-0.0062,-0.0137,-0.0227,-0.0262,-0.0229,-0.025,-0.0301,-0.0299,-0.0321,-0.0321,-0.0321,-0.0322,-0.0322,0,0.0091,0.0109,0.0145,0.0168,0.0179,0.0213,0.024,0.0254,0.0279,0.0295,0.0312,0.0264,0.0221,0.0076,-0.0043,-0.0203,-0.023,-0.0285,-0.029,-0.0286,-0.0306,-0.0304,-0.0302,-0.0323,-0.0323,-0.0323,-0.0323,0,0.0114,0.0123,0.0148,0.0194,0.0228,0.027,0.0307,0.0335,0.0356,0.0358,0.0371,0.03,0.0222,0.0096,-0.003,-0.0147,-0.0253,-0.029,-0.029,-0.0295,-0.0289,-0.0308,-0.0305,-0.0324,-0.0324,-0.0324,-0.0324,0,0.0127,0.0146,0.0176,0.0218,0.0264,0.0311,0.0332,0.0368,0.0396,0.0416,0.042,0.0336,0.029,0.0125,0.0009,-0.0106,-0.0141,-0.0188,-0.0194,-0.0195,-0.0148,-0.0121,-0.0114,0,0,0,0,0,0.0137,0.0158,0.0199,0.0245,0.0292,0.0317,0.0372,0.039,0.0416,0.0437,0.0433,0.0364,0.0213,0.0148,0.0036,-0.002,-0.018,-0.016,-0.0242,-0.0331,-0.0329,-0.0296,0,0,0,0,0,0,0.0144,0.0178,0.0197,0.0257,0.0291,0.0345,0.0381,0.0403,0.0415,0.0429,0.0358,0.0324,0.0178,0.0281,0.0031,-0.0005,-0.0076,-0.0231,-0.0233,-0.0332,-0.033,-0.0329,-0.0295,0,0,0,0,0]}]]